Regional Weather Roundup
Issued by NWS Wilmington, NC

Home | Current Version | Previous Version | Text Only | Print | Product List | Glossary On
Versions: 1 2 3 4 5 6 7 8 9 10 11 12 13 14 15 16 17 18 19 20 21 22 23 24 25 26 27 28 29 30 31 32 33 34 35 36 37 38 39 40 41 42 43 44 45 46 47 48 49 50
000
ASUS42 KILM 050513
RWRILM
RWRILM
REGIONAL HOURLY WEATHER ROUNDUP
NATIONAL WEATHER SERVICE WILMINGTON NC
1200 AM EST MON DEC 05 2016

NOTE: "FAIR" INDICATES FEW OR NO CLOUDS BELOW 12,000 FEET WITH NO
SIGNIFICANT WEATHER AND/OR OBSTRUCTIONS TO VISIBILITY.

...............WFO WILMINGTON COUNTY WARNING AREA...............

......COASTAL NC AND SC COUNTIES......

CITY           SKY/WX    TMP DP  RH WIND       PRES   REMARKS
WILMINGTON     RAIN      53  53 100 W5        30.03F FOG
N MYRTLE BEACH RAIN      55  55 100 N3        30.02F FOG
MYRTLE BEACH   CLOUDY    54  52  94 N3        30.03F

......INLAND NC AND SC COUNTIES.......

CITY           SKY/WX    TMP DP  RH WIND       PRES   REMARKS
LUMBERTON      LGT RAIN  45  45 100 NE6       30.04F FOG
ELIZABETHTOWN  RAIN      45  45 100 CALM      30.05F
WHITEVILLE     LGT RAIN  48  47  96 E3        30.04F
FLORENCE       LGT RAIN  46  45  96 NE6       30.04F
DARLINGTON     LGT RAIN  44  43  96 N5        30.05F FOG
KINGSTREE      HVY RAIN  46  45  93 CALM      30.01F
HARTSVILLE     CLOUDY    43  43 100 NE3       30.03F
BENNETTSVILLE  RAIN      46  45  93 N3        30.05F
CONWAY         LGT RAIN  46  46 100 N5        30.02F
GEORGETOWN     NOT AVBL
MARION         LGT RAIN  45  43  93 NE3       30.04F

....................REST OF NORTH CAROLINA......................

.........EASTERN NC.........

CITY           SKY/WX    TMP DP  RH WIND       PRES   REMARKS
CAPE HATTERAS  LGT RAIN  51  48  89 E6        30.09F FOG
JACKSONVILLE   LGT RAIN  46  45  96 NE5       30.06F
MOREHEAD CITY  LGT RAIN  52  51  97 E7        30.05F FOG
KENANSVILLE    LGT RAIN  45  45 100 CALM      30.07F FOG
NEW BERN       LGT RAIN  47  45  93 E6        30.08F
ELIZABETH CITY LGT RAIN  46  43  89 E9        30.11F

.........CENTRAL NC.........

CITY           SKY/WX    TMP DP  RH WIND       PRES   REMARKS
RALEIGH DURHAM LGT RAIN  42  41  96 SE3       30.08F FOG
ROCKY MOUNT    LGT RAIN  43  43 100 CALM      30.08F FOG
ROANOKE RAPIDS NOT AVBL
FAYETTEVILLE   LGT RAIN  45  44  97 VRB5      30.06F FOG
HOFFMAN        RAIN      43  43  97 NE3       30.05F FOG

.........WESTERN NC.........

CITY           SKY/WX    TMP DP  RH WIND       PRES   REMARKS
CHARLOTTE      LGT RAIN  42  39  89 N5        30.07F
GREENSBORO     LGT RAIN  41  41 100 SW3       30.05F FOG
HICKORY        NOT AVBL
BOONE          NOT AVBL
ASHEVILLE      NOT AVBL

.....................REST OF SOUTH CAROLINA.....................

.........EASTERN SC.........

CITY           SKY/WX    TMP DP  RH WIND       PRES   REMARKS
CHARLESTON     CLOUDY    59  53  80 CALM      30.00F
BEAUFORT MCAS  CLOUDY    61  57  87 CALM      30.00F
HILTON HEAD    MOCLDY    68  64  88 SE9       30.01F

.........CENTRAL SC.........

CITY           SKY/WX    TMP DP  RH WIND       PRES   REMARKS
COLUMBIA       RAIN      46  43  89 N6        30.04F FOG
ORANGEBURG     LGT RAIN  46  45  96 N5        30.02F
SUMTER SHAW    RAIN      45  43  93 N7        30.01S FOG

.........WESTERN SC.........

CITY           SKY/WX    TMP DP  RH WIND       PRES   REMARKS
GREENVILLE     NOT AVBL
ROCK HILL      LGT RAIN  42  40  92 N5        30.07F FOG
ANDERSON       LGT RAIN  43  40  89 NE6       30.08S
CLEMSON        NOT AVBL
GREENWOOD      LGT RAIN  42  40  92 N8        30.08F


...................COASTAL AND OFFSHORE REPORTS..................

................LOCAL PIERS AND NC RESERVE................


STATION/POSITION TIME  SKY/WX   TEMP    WIND        PRES    VSBY
                                AIR SEA DIR/SP/G
                 (UTC)          (F)     (DEG/KT/KT) (MB)    (MI)
JOHNY MRCER PIER 0448            62 62  150/  8/  9 1015.7F
NC RESRV MASNBRO 0345            58     110/  5     1017.0
OCEAN CREST PIER NOT AVBL
SPRINGMAID  PIER NOT AVBL


................COASTAL AND OFFSHORE BUOYS................


STATION/POSITION TIME  SKY/WX   TEMP    WIND        PRES    VSBY
                                AIR SEA DIR/SP/G
                 (UTC)          (F)     (DEG/KT/KT) (MB)    (MI)
DIMNDSHOAL 41025 0450            62 74  150/ 14/ 17 1018.8F
WVE H/P(F/S)=  3/ 8 SWL H/P/D(F/S/D)=  2/ 50/ 8

CAPE LOOKOUT     0400            59     100/ 13/ 15 1018.5F
ONSLOW BAY 41036 NOT AVBL
ONSLOW BAY 41064 0408            64 75  170/ 17/ 21 1018.1F
ONSLOW BAY 41159 NOT AVBL
5SE WRITBC 41038 0408            58 63   90/ 10/ 14 1017.6F
MASNBO INL 41110 0459               63                N/A
WVE H/P(F/S)=  3/ 5

WILM HARBR 41108 0456               62                N/A
WVE H/P(F/S)=  3/ 5

27SE WRITB 41037 0408            67 67  160/ 17/ 23 1017.5F
FRYING PAN 41013 0450            72 74  180/ 21/ 25 1017.0F
WVE H/P(F/S)=  4/ 4 SWL H/P/D(F/S/D)=  2/100/ 9

SUNST NRSH 41024 0408            60 60  100/ 14/ 17 1016.5F
CAPRS NRSH 41029 0408            67 62  180/ 10/ 14 1016.4F
EDISTO     41004 0450            73 75  170/ 21/ 27 1015.6F
WVE H/P(F/S)=  5/ 5 SWL H/P/D(F/S/D)=  2/ 80/10



..........OFFSHORE BUOYS BEYOND 100 NM OFFSHORE...........
.....IN A TRIANGLE---HAT TO BERMUDA TO BAHAMAS TO HAT.....


STATION/POSITION TIME  SKY/WX   TEMP    WIND        PRES    VSBY
                                AIR SEA DIR/SP/G
                 (UTC)          (F)     (DEG/KT/KT) (MB)    (MI)
150E HAT   41001 NOT AVBL
W BERMUDA  41048 0450            66 73  320/  8/ 12 1020.5F
WVE H/P(F/S)=  8/10 SWL H/P/D(F/S/D)=  8/10

ATLANTIC S 41049 0450            71 76  340/ 16/ 19 1017.6F
WVE H/P(F/S)= 10/12 SWL H/P/D(F/S/D)=  8/340/12

E BAHAMAS  41046 0450            74 78   30/ 12/ 16 1018.9S
WVE H/P(F/S)=  5/11 SWL H/P/D(F/S/D)=  5/11

NE BAHAMAS 41047 0450            71 78   50/  8/ 10 1020.0F
WVE H/P(F/S)=  6/10 SWL H/P/D(F/S/D)=  7/ 30/10

120E CANVRL41010 NOT AVBL

END



USA.gov is the U.S. government's official web portal to all federal, state and local government web resources and services.